| time (UTC) | temp F | wind direction | speed knots | gust knots | rain 1hr in | rain 24hr in | rain mn in | humidity % | barometer mb |
| 20260502214343 | 65 | 172 | 1.7 | 11.3 | 0.04 | 0.00 | 0.04 | 77 | 1014.4 |
| 20260502213842 | 66 | 135 | 3.5 | 11.3 | 0.02 | 0.00 | 0.01 | 72 | 1014.3 |
| 20260502213337 | 69 | 162 | 4.3 | 11.3 | 0.01 | 0.00 | 0.01 | 69 | 1014.4 |
| 20260502212835 | 69 | 132 | 2.6 | 8.7 | 0.00 | 0.00 | 0.00 | 65 | 1014.3 |
| 20260502204306 | 72 | 15 | 0.0 | 1.7 | 0.00 | 0.00 | 0.00 | 62 | 1013.6 |
| 20260502201336 | 73 | 14 | 0.0 | 0.9 | 0.00 | 0.00 | 0.00 | 61 | 1013.6 |
| 20260502193512 | 75 | 8 | 1.7 | 2.6 | 0.00 | 0.00 | 0.00 | 58 | 1013.6 |
| 20260502192526 | 75 | 24 | 0.9 | 1.7 | 0.00 | 0.00 | 0.00 | 56 | 1013.6 |
| 20260502191501 | 74 | 24 | 0.9 | 1.7 | 0.00 | 0.00 | 0.00 | 57 | 1013.8 |
| 20260502185103 | 75 | 24 | 0.0 | 2.6 | 0.00 | 0.00 | 0.00 | 56 | 1014.1 |
| 20260502184603 | 75 | 24 | 0.9 | 1.7 | 0.00 | 0.00 | 0.00 | 56 | 1014.2 |
| 20260502181525 | 74 | 24 | 0.0 | 1.7 | 0.00 | 0.00 | 0.00 | 58 | 1014.6 |
| 20260502180452 | 74 | 24 | 0.9 | 1.7 | 0.00 | 0.00 | 0.00 | 58 | 1014.8 |
| 20260502163234 | 74 | 279 | 1.7 | 4.3 | 0.00 | 0.00 | 0.00 | 58 | 1015.8 |
| 20260502161713 | 73 | 258 | 1.7 | 8.7 | 0.00 | 0.00 | 0.00 | 57 | 1015.9 |
| 20260502160634 | 74 | 308 | 3.5 | 8.7 | 0.00 | 0.00 | 0.00 | 57 | 1016.1 |
| 20260502160216 | 73 | 341 | 2.6 | 6.1 | 0.00 | 0.00 | 0.00 | 58 | 1016.1 |
| 20260502123032 | 70 | 264 | 4.3 | 9.6 | 0.00 | 0.00 | 0.00 | 59 | 1017.8 |
| 20260502122614 | 71 | 210 | 2.6 | 6.1 | 0.00 | 0.00 | 0.00 | 59 | 1017.9 |
| 20260502122115 | 70 | 260 | 3.5 | 6.1 | 0.00 | 0.00 | 0.00 | 59 | 1017.9 |
| 20260502121533 | 70 | 205 | 0.9 | 5.2 | 0.00 | 0.00 | 0.00 | 58 | 1017.9 |
| 20260502121031 | 69 | 108 | 1.7 | 5.2 | 0.00 | 0.00 | 0.00 | 59 | 1018.1 |
| 20260502114928 | 69 | 144 | 1.7 | 4.3 | 0.00 | 0.00 | 0.00 | 58 | 1018.2 |
| 20260502113441 | 68 | 178 | 1.7 | 3.5 | 0.00 | 0.00 | 0.00 | 58 | 1018.4 |
| 20260502112946 | 67 | 230 | 1.7 | 3.5 | 0.00 | 0.00 | 0.00 | 58 | 1018.2 |
| 20260502111004 | 66 | 226 | 1.7 | 3.5 | 0.00 | 0.00 | 0.00 | 59 | 1018.4 |
| 20260502110048 | 65 | 354 | 0.9 | 3.5 | 0.00 | 0.00 | 0.00 | 61 | 1018.4 |
| 20260502104103 | 64 | 282 | 1.7 | 3.5 | 0.00 | 0.00 | 0.00 | 62 | 1018.6 |
| 20260502103525 | 64 | 207 | 1.7 | 3.5 | 0.00 | 0.00 | 0.00 | 62 | 1018.6 |
| 20260502102107 | 61 | 265 | 0.9 | 3.5 | 0.00 | 0.00 | 0.00 | 63 | 1018.6 |
| 20260502101607 | 61 | 271 | 0.9 | 4.3 | 0.00 | 0.00 | 0.00 | 62 | 1018.5 |
| 20260502100535 | 60 | 244 | 1.7 | 4.3 | 0.00 | 0.00 | 0.00 | 62 | 1018.5 |
| 20260502071527 | 51 | 136 | 0.9 | 2.6 | 0.00 | 0.00 | 0.00 | 67 | 1018.4 |
| 20260502070500 | 51 | 136 | 0.9 | 2.6 | 0.00 | 0.00 | 0.00 | 67 | 1018.4 |
| 20260502065538 | 51 | 136 | 0.9 | 2.6 | 0.00 | 0.00 | 0.00 | 66 | 1018.3 |
| 20260502064542 | 51 | 136 | 0.9 | 2.6 | 0.00 | 0.00 | 0.00 | 66 | 1018.4 |
| 20260502063010 | 51 | 136 | 0.9 | 2.6 | 0.00 | 0.00 | 0.00 | 66 | 1018.4 |
| 20260502062045 | 51 | 138 | 0.0 | 1.7 | 0.00 | 0.00 | 0.00 | 66 | 1018.5 |
| 20260502060556 | 51 | 138 | 0.9 | 1.7 | 0.00 | 0.00 | 0.00 | 66 | 1018.7 |
| 20260502055117 | 52 | 138 | 0.0 | 1.7 | 0.00 | 0.00 | 0.00 | 65 | 1018.9 |
| 20260502053627 | 53 | 138 | 0.9 | 2.6 | 0.00 | 0.00 | 0.00 | 64 | 1018.8 |
| 20260502052641 | 53 | 138 | 0.9 | 2.6 | 0.00 | 0.00 | 0.00 | 63 | 1018.9 |
| 20260502051638 | 53 | 139 | 0.9 | 2.6 | 0.00 | 0.00 | 0.00 | 62 | 1018.8 |
| 20260502045736 | 53 | 139 | 0.9 | 2.6 | 0.00 | 0.00 | 0.00 | 62 | 1019.1 |
| 20260502044656 | 54 | 141 | 0.9 | 2.6 | 0.00 | 0.00 | 0.00 | 61 | 1019.2 |
| 20260502044237 | 54 | 142 | 0.9 | 2.6 | 0.00 | 0.00 | 0.00 | 60 | 1019.2 |
| 20260502042752 | 55 | 142 | 0.0 | 1.7 | 0.00 | 0.00 | 0.00 | 60 | 1019.4 |
| 20260502042247 | 55 | 142 | 0.0 | 1.7 | 0.00 | 0.00 | 0.00 | 58 | 1019.3 |
| 20260502041240 | 55 | 142 | 0.0 | 0.9 | 0.00 | 0.00 | 0.00 | 58 | 1019.4 |
| 20260502040656 | 56 | 142 | 0.0 | 0.9 | 0.00 | 0.00 | 0.00 | 58 | 1019.3 |
| 20260502035333 | 56 | 142 | 0.0 | 0.9 | 0.00 | 0.00 | 0.00 | 56 | 1019.4 |
| 20260502034831 | 56 | 142 | 0.0 | 1.7 | 0.00 | 0.00 | 0.00 | 56 | 1019.3 |
| 20260502033759 | 57 | 142 | 0.9 | 1.7 | 0.00 | 0.00 | 0.00 | 55 | 1019.4 |
| 20260502032759 | 57 | 142 | 0.9 | 2.6 | 0.00 | 0.00 | 0.00 | 54 | 1019.4 |
| 20260502031752 | 57 | 144 | 0.9 | 2.6 | 0.00 | 0.00 | 0.00 | 54 | 1019.5 |
| 20260502031334 | 58 | 144 | 0.9 | 2.6 | 0.00 | 0.00 | 0.00 | 53 | 1019.7 |
| 20260502025849 | 58 | 144 | 0.9 | 1.7 | 0.00 | 0.00 | 0.00 | 52 | 1019.8 |
| 20260502025309 | 59 | 144 | 0.9 | 1.7 | 0.00 | 0.00 | 0.00 | 52 | 1019.9 |
| 20260502024813 | 59 | 145 | 0.9 | 1.7 | 0.00 | 0.00 | 0.00 | 51 | 1019.9 |
| 20260502022436 | 60 | 145 | 0.0 | 1.7 | 0.00 | 0.00 | 0.00 | 50 | 1020.2 |
| 20260502021938 | 60 | 145 | 0.0 | 1.7 | 0.00 | 0.00 | 0.00 | 50 | 1020.2 |
| 20260502021438 | 60 | 145 | 0.0 | 1.7 | 0.00 | 0.00 | 0.00 | 50 | 1020.2 |
| 20260502020934 | 60 | 145 | 0.0 | 2.6 | 0.00 | 0.00 | 0.00 | 50 | 1020.3 |
| 20260502020437 | 60 | 145 | 0.9 | 2.6 | 0.00 | 0.00 | 0.00 | 49 | 1020.3 |
| 20260502014415 | 60 | 145 | 0.9 | 2.6 | 0.00 | 0.00 | 0.00 | 49 | 1020.3 |
| 20260502013258 | 60 | 145 | 0.9 | 2.6 | 0.00 | 0.00 | 0.00 | 48 | 1020.4 |
| 20260502012756 | 61 | 145 | 0.9 | 2.6 | 0.00 | 0.00 | 0.00 | 49 | 1020.5 |
| 20260502012253 | 60 | 145 | 0.0 | 2.6 | 0.00 | 0.00 | 0.00 | 49 | 1020.5 |
| 20260502011328 | 61 | 145 | 0.9 | 1.7 | 0.00 | 0.00 | 0.00 | 49 | 1020.5 |
| 20260502010829 | 61 | 144 | 0.0 | 1.7 | 0.00 | 0.00 | 0.00 | 49 | 1020.5 |
| 20260502010328 | 61 | 144 | 0.0 | 1.7 | 0.00 | 0.00 | 0.00 | 49 | 1020.6 |
| 20260502005748 | 61 | 144 | 0.0 | 1.7 | 0.00 | 0.00 | 0.00 | 49 | 1020.6 |
| 20260502005247 | 61 | 142 | 0.9 | 1.7 | 0.00 | 0.00 | 0.00 | 48 | 1020.5 |
| 20260502004218 | 61 | 142 | 0.9 | 3.5 | 0.00 | 0.00 | 0.00 | 48 | 1020.5 |
| 20260502000040 | 63 | 134 | 0.0 | 2.6 | 0.00 | 0.00 | 0.00 | 46 | 1020.6 |
| 20260501235048 | 63 | 132 | 0.9 | 3.5 | 0.00 | 0.00 | 0.00 | 45 | 1020.6 |
| 20260501234007 | 64 | 138 | 1.7 | 3.5 | 0.00 | 0.00 | 0.00 | 44 | 1020.6 |
| 20260501231422 | 65 | 139 | 1.7 | 2.6 | 0.00 | 0.00 | 0.00 | 42 | 1020.6 |
| 20260501230347 | 65 | 125 | 0.9 | 1.7 | 0.00 | 0.00 | 0.00 | 42 | 1020.7 |
| 20260501222850 | 67 | 127 | 1.7 | 4.3 | 0.00 | 0.00 | 0.00 | 39 | 1020.9 |
| 20260501222311 | 67 | 115 | 0.9 | 3.5 | 0.00 | 0.00 | 0.00 | 39 | 1020.8 |